Погода в Жемчужникове

Россия / Тульская область     53°56′11″N   36°48′36″E
темп.,
°C
ветер,
м/с
пор.,
м/с
влажн.,
%
обл.,
%
осадки,
мм/ч
давл.,
гПа
погр.,
м
19 сентября, вс
вс1900:00+5вюв71585100 2.7 1019678
03:00+5в81690100 6.0 1018650
06:00+5вюв81694100 4.3 1017652
09:00+6в91894100 8.3 1016695
12:00+6вюв91894100 4.6 1016741
15:00+6в91695100 10.3 1015841
18:00+7в81595100 3.9 1014895
21:00+7в71496100 11.5 1013853
20 сентября, пн
пн2000:00+7в71395100 1.4 1012846
03:00+7в71295100 1.8 1011677
06:00+7в61195100 0.1 1010587
09:00+7в71296100 0.4 1010560
12:00+7в71295100 0.1 1011596
15:00+7в81395100 0.3 1010654
18:00+6в91595100 2.3 1010615
21:00+6в71495100 3.3 1011702
21 сентября, вт
вт2100:00+6в71396100 5.2 1010666
03:00+6в51097100 7.6 1009541
06:00+7в3599100 0.3 1009223
09:00+9в3794100 0.5 1009424
12:00+9вюв4792100 1.2 1009497
15:00+8юв3596100 3.6 1009342
18:00+7ююв2596100 1.4 1010322
21:00+7юв1193100 1.4 101132
22 сентября, ср
ср2200:00+7всв1193100 0.0 101113
03:00+7с2597100 0.3 1010217
06:00+7ссв369880 1.1 1010223
09:00+8св4694100 1.4 1010463
12:00+9св5588100 0.9 1010650
15:00+7ссв4696100 3.2 1010451
18:00+6ссв3696100 3.4 1011357
21:00+6ссв2597100 4.1 1011278
23 сентября, чт
чт2300:00+6ссв2397100 0.9 1010174
03:00+6с1297100 1.4 1010110
06:00+6зсз1197100 0.5 101080
09:00+7юз1194100 0.6 1010180
12:00+8ююз1290100 0.4 1010414
15:00+8зюз128684 0.8 1010424
18:00+8зюз358975 0.4 1010278
21:00+7юз249188 0.4 1010133